TimeCDT,TemperatureF,Dew PointF,Humidity,Sea Level PressureIn,VisibilityMPH,Wind Direction,Wind SpeedMPH,Gust SpeedMPH,PrecipitationIn,Events,Conditions,WindDirDegrees,DateUTC
12:53 AM,64.9,54.0,68,29.99,10.0,North,4.6,-,N/A,,Mostly Cloudy,360,2012-09-30 05:53:00
1:53 AM,64.0,54.0,70,29.98,10.0,North,3.5,-,N/A,,Overcast,350,2012-09-30 06:53:00
2:53 AM,63.0,53.1,70,29.97,10.0,Calm,Calm,-,N/A,,Scattered Clouds,0,2012-09-30 07:53:00
3:53 AM,63.0,53.1,70,29.96,10.0,Calm,Calm,-,N/A,,Mostly Cloudy,0,2012-09-30 08:53:00
4:53 AM,62.1,54.0,75,29.96,10.0,Calm,Calm,-,N/A,,Overcast,0,2012-09-30 09:53:00
5:53 AM,61.0,54.0,78,29.95,10.0,Calm,Calm,-,N/A,,Overcast,0,2012-09-30 10:53:00
6:53 AM,60.1,53.1,78,29.95,10.0,Calm,Calm,-,N/A,,Clear,0,2012-09-30 11:53:00
7:53 AM,59.0,54.0,83,29.96,10.0,Calm,Calm,-,N/A,,Clear,0,2012-09-30 12:53:00
8:53 AM,62.1,55.0,78,29.97,10.0,Calm,Calm,-,N/A,,Clear,0,2012-09-30 13:53:00
9:53 AM,64.0,54.0,70,29.97,10.0,North,3.5,-,N/A,,Clear,360,2012-09-30 14:53:00
10:53 AM,68.0,54.0,61,29.97,10.0,NNE,4.6,-,N/A,,Clear,30,2012-09-30 15:53:00
11:53 AM,71.1,55.0,57,29.96,10.0,Variable,3.5,-,N/A,,Clear,0,2012-09-30 16:53:00
12:53 PM,73.0,52.0,48,29.94,10.0,NNE,12.7,-,N/A,,Clear,20,2012-09-30 17:53:00
1:53 PM,73.9,50.0,43,29.92,10.0,NE,5.8,-,N/A,,Clear,40,2012-09-30 18:53:00
2:53 PM,77.0,48.9,37,29.89,10.0,NNE,9.2,-,N/A,,Clear,30,2012-09-30 19:53:00
3:53 PM,78.1,46.9,33,29.88,10.0,NNE,10.4,-,N/A,,Clear,20,2012-09-30 20:53:00
4:53 PM,73.9,48.0,40,29.88,10.0,NE,4.6,-,N/A,,Clear,40,2012-09-30 21:53:00
5:53 PM,71.1,48.0,44,29.88,10.0,NNE,4.6,-,N/A,,Clear,20,2012-09-30 22:53:00
6:53 PM,66.9,51.1,57,29.88,10.0,Calm,Calm,-,N/A,,Clear,0,2012-09-30 23:53:00
7:53 PM,62.1,52.0,70,29.88,10.0,Calm,Calm,-,N/A,,Clear,0,2012-10-01 00:53:00
8:53 PM,59.0,53.1,81,29.88,10.0,Calm,Calm,-,N/A,,Clear,0,2012-10-01 01:53:00
9:53 PM,61.0,54.0,78,29.89,10.0,Calm,Calm,-,N/A,,Clear,0,2012-10-01 02:53:00
11:53 PM,57.9,51.1,78,29.88,10.0,Calm,Calm,-,N/A,,Clear,0,2012-10-01 04:53:00